[[{"header":{"parameterUnit":"m.s-1","parameterCategory":1,"la1":30.2991,"la2":30.254,"lo1":-89.0895,"lo2":-89.0444,"dy":0.0017,"dx":0.0017,"nx":28,"ny":28,"refTime":"2024-08-04T21:00:00:Z","depth":0,"parameterNumber":2,"parameterNumberName":"U-component_of_WINDS"},"data":[0,0,0,0,0,0,0,0,0,0,0,0,0,0,0,0,0,0,0,0,0,0,0,0,0,0,0,0,0,0,0,0,0,0,0,0,0,0,0,0,0,0,0,0,0,0,0,0,0,0,0,0,0,0,0,0,0,0,-1.1829,-1.1827,0,-1.1687,-1.1685,-1.1684,-1.157,-1.1569,-1.1568,-1.1566,-1.1416,-1.1413,-1.141,0,0,0,0,0,0,0,0,0,0,0,0,0,-1.1997,-1.1994,-1.1829,-1.1827,-1.1826,-1.1687,-1.1685,-1.1683,-1.157,-1.1569,-1.1567,-1.1566,-1.1417,-1.1414,-1.141,0,0,0,0,0,0,0,0,0,0,0,0,0,-1.1896,-1.1993,-1.1829,-1.1752,-1.1744,-1.1688,-1.1685,-1.1683,-1.157,-1.1569,-1.1567,-1.1565,-1.1418,-1.1414,-1.141,-1.1417,0,0,-1.1396,-1.1394,0,0,0,0,0,0,0,0,-1.1902,-1.189,-1.1766,-1.1758,-1.1748,-1.1645,-1.1689,-1.1594,-1.1571,-1.1636,-1.1566,-1.1564,-1.1493,-1.1483,-1.146,-1.141,-1.1403,-1.1396,-1.1393,-1.1391,-1.139,0,0,0,0,0,0,0,-1.1909,-1.1896,-1.1773,-1.1764,-1.1753,-1.1723,-1.1707,-1.1671,-1.1576,-1.163,-1.1622,-1.1607,-1.1488,-1.1464,-1.1455,-1.1401,-1.1396,-1.1392,-1.1389,-1.1388,-1.1348,-1.135,0,0,0,0,0,0,-1.1929,-1.1902,-1.1777,-1.1768,-1.1823,-1.1722,-1.1704,-1.1679,-1.1576,-1.1559,-1.1608,-1.1602,-1.1472,-1.146,-1.145,-1.145,-1.1391,-1.1387,-1.1385,-1.1347,-1.1349,-1.135,0,0,0,0,0,0,-1.1933,-1.1919,-1.1783,-1.1833,-1.1813,-1.1721,-1.1694,-1.1678,-1.1653,-1.1559,-1.1541,-1.1602,-1.1471,-1.1456,-1.1426,-1.1443,-1.1385,-1.1381,-1.1345,-1.1347,-1.135,-1.1452,0,0,0,0,0,0,-1.1938,-1.1921,-1.1924,-1.1834,-1.1811,-1.1764,-1.1696,-1.1676,-1.1647,-1.1637,-1.1548,-1.1532,-1.1468,-1.1433,-1.1422,-1.1436,-1.1378,-1.1343,-1.1346,-1.1349,-1.1447,-1.1458,-1.1467,0,0,0,0,0,-1.1945,-1.1958,-1.1925,-1.191,-1.1813,-1.1765,-1.1752,-1.168,-1.1649,-1.165,-1.1589,-1.1535,-1.1444,-1.1431,-1.1417,-1.1431,-1.1341,-1.1345,-1.1349,-1.1442,-1.1456,-1.1467,0,0,0,0,0,0,-1.2051,-1.1945,-1.1907,-1.1892,-1.1839,-1.1746,-1.1746,-1.1696,-1.1649,-1.1642,-1.1553,-1.1534,-1.1513,-1.1468,-1.1457,-1.1431,-1.1385,-1.1386,-1.1461,-1.1473,-1.1483,-1.1494,-1.1374,0,0,0,0,0,-1.2073,-1.2044,-1.1952,-1.1948,-1.1923,-1.1839,-1.1815,-1.1765,-1.1705,-1.1681,-1.1618,-1.1562,-1.1519,-1.1494,-1.145,-1.144,-1.1418,-1.1442,-1.1453,-1.1461,-1.1463,-1.1453,-1.1462,-1.1362,-1.1362,-1.1362,0,0,-1.2118,-1.2056,-1.2043,-1.1967,-1.192,-1.1891,-1.1821,-1.1793,-1.1769,-1.1676,-1.1645,-1.1597,-1.1527,-1.1507,-1.1495,-1.1469,-1.1486,-1.1466,-1.1474,-1.147,-1.1458,-1.1467,-1.1476,-1.1365,-1.1364,-1.1364,0,0,-1.2184,-1.2135,-1.2125,-1.208,-1.2009,-1.1953,-1.1951,-1.1866,-1.1831,-1.1798,-1.1727,-1.1697,-1.1628,-1.1581,-1.1548,-1.1596,-1.1543,-1.1584,-1.1637,-1.1628,-1.1636,-1.1642,-1.1658,-1.1665,-1.1586,-1.1586,-1.1586,0,-1.2248,-1.2202,-1.2126,-1.2102,-1.2071,-1.1987,-1.1975,-1.1934,-1.1853,-1.1832,-1.1804,-1.1715,-1.1662,-1.1629,-1.1641,-1.1617,-1.161,-1.1593,-1.1641,-1.1647,-1.1652,-1.1666,-1.1673,-1.1591,-1.1591,-1.159,-1.159,0,-1.2284,-1.2253,-1.2253,-1.2179,-1.2146,-1.2129,-1.2049,-1.2026,-1.1977,-1.1924,-1.189,-1.1824,-1.1765,-1.1754,-1.1706,-1.1713,-1.17,-1.1658,-1.161,-1.1668,-1.168,-1.1685,-1.1599,-1.1597,-1.1595,-1.1594,0,0,-1.2413,-1.2297,-1.2298,-1.2262,-1.2178,-1.2152,-1.213,-1.2074,-1.2055,-1.2002,-1.198,-1.1923,-1.1884,-1.1846,-1.1792,-1.1784,-1.1825,-1.1743,-1.174,-1.176,-1.1828,-1.186,-1.1868,-1.179,-1.1791,-1.1791,-1.1834,0,-1.2465,-1.2423,-1.2354,-1.2333,-1.2303,-1.2222,-1.2203,-1.2148,-1.2098,-1.2063,-1.2006,-1.1967,-1.1918,-1.1895,-1.1884,-1.1823,-1.1838,-1.1819,-1.1767,-1.1766,-1.1787,-1.1874,-1.1907,-1.1951,-1.1838,-1.1839,-1.1839,0,-1.2521,-1.2473,-1.2451,-1.2368,-1.2353,-1.2337,-1.2279,-1.2248,-1.2184,-1.2147,-1.2106,-1.2047,-1.2017,-1.1974,-1.1931,-1.192,-1.1894,-1.1861,-1.1861,-1.1852,-1.1806,-1.1868,-1.1963,-1.197,-1.1846,-1.1846,-1.1845,0,-1.2617,-1.2547,-1.2524,-1.2496,-1.24,-1.239,-1.2349,-1.2283,-1.2254,-1.2202,-1.2182,-1.2128,-1.2098,-1.2057,-1.1984,-1.196,-1.1949,-1.19,-1.1916,-1.1918,-1.1917,-1.1918,-1.201,-1.1902,-1.1902,-1.1902,-1.1902,0,-1.2682,-1.2671,-1.2566,-1.2552,-1.2536,-1.2456,-1.2442,-1.2393,-1.2335,-1.2309,-1.2235,-1.2211,-1.2117,-1.2082,-1.2024,-1.1997,-1.1984,-1.1952,-1.1937,-1.1959,-1.1963,-1.194,-1.1935,-1.1903,-1.1903,-1.1903,-1.1903,0,-1.2787,-1.2716,-1.2686,-1.2597,-1.2574,-1.2567,-1.249,-1.2472,-1.2417,-1.2384,-1.2371,-1.2284,-1.2239,-1.2162,-1.2094,-1.2056,-1.2039,-1.2013,-1.2061,-1.2052,-1.2072,-1.2072,-1.2152,-1.2158,-1.2049,-1.205,-1.2051,0,-1.2834,-1.2823,-1.2734,-1.2711,-1.2674,-1.2639,-1.2608,-1.2528,-1.2499,-1.2425,-1.2416,-1.2365,-1.232,-1.2251,-1.218,-1.2127,-1.2099,-1.2131,-1.2091,-1.2113,-1.2099,-1.21,-1.2098,-1.2141,-1.2142,-1.2144,-1.2145,0,-1.2923,-1.2888,-1.2849,-1.2796,-1.2763,-1.2717,-1.2667,-1.2653,-1.2561,-1.2532,-1.2486,-1.2451,-1.2382,-1.2332,-1.2269,-1.2224,-1.2169,-1.2158,-1.2159,-1.2181,-1.2209,-1.2193,-1.2086,-1.2156,-1.2155,-1.2154,-1.2154,-1.2153,-1.2999,-1.2986,-1.2921,-1.2879,-1.2833,-1.2789,-1.2768,-1.271,-1.267,-1.2609,-1.2564,-1.252,-1.2454,-1.2364,-1.2323,-1.2286,-1.2261,-1.2262,-1.2263,-1.2264,-1.2272,-1.2215,-1.2274,-1.2274,-1.2273,-1.2273,-1.2273,0,-1.3085,-1.3039,-1.3001,-1.2934,-1.2901,-1.2853,-1.2796,-1.277,-1.2733,-1.2677,-1.2635,-1.2581,-1.2531,-1.2457,-1.2402,-1.2387,-1.236,-1.2375,-1.2374,-1.2365,-1.2298,-1.2303,-1.2397,-1.2397,-1.2397,-1.2397,-1.2397,-1.2397,-1.3125,-1.31,-1.3058,-1.3009,-1.2962,-1.292,-1.2891,-1.2849,-1.2804,-1.2747,-1.2707,-1.2659,-1.2595,-1.2534,-1.2486,-1.2465,-1.2448,-1.2471,-1.2442,-1.2381,-1.237,-1.2359,-1.2363,-1.2468,-1.2468,-1.2512,-1.2512,-1.2512]},{"header":{"parameterUnit":"m.s-1","parameterCategory":1,"la1":30.2991,"la2":30.254,"lo1":-89.0895,"lo2":-89.0444,"dy":0.0017,"dx":0.0017,"nx":28,"ny":28,"refTime":"2024-08-04T21:00:00:Z","depth":0,"parameterNumber":3,"parameterNumberName":"V-component_of_WINDS"},"data":[0,0,0,0,0,0,0,0,0,0,0,0,0,0,0,0,0,0,0,0,0,0,0,0,0,0,0,0,0,0,0,0,0,0,0,0,0,0,0,0,0,0,0,0,0,0,0,0,0,0,0,0,0,0,0,0,0,0,2.8194,2.8194,0,2.8252,2.8252,2.8253,2.8208,2.8206,2.8204,2.8202,2.8255,2.8258,2.8261,0,0,0,0,0,0,0,0,0,0,0,0,0,2.8037,2.804,2.8194,2.8195,2.8195,2.8252,2.8252,2.8253,2.8208,2.8206,2.8203,2.8201,2.8254,2.8257,2.8261,0,0,0,0,0,0,0,0,0,0,0,0,0,2.8101,2.8041,2.8194,2.818,2.8179,2.8251,2.8252,2.8253,2.8208,2.8206,2.8203,2.82,2.8252,2.8257,2.8262,2.8349,0,0,2.8276,2.8279,0,0,0,0,0,0,0,0,2.8097,2.8107,2.8181,2.8181,2.818,2.822,2.8216,2.8285,2.8209,2.8197,2.8202,2.8199,2.8245,2.825,2.8267,2.8352,2.8354,2.8277,2.828,2.8282,2.8283,0,0,0,0,0,0,0,2.8093,2.8104,2.8216,2.8182,2.8182,2.8168,2.8174,2.8229,2.8236,2.8198,2.8195,2.8203,2.8244,2.8263,2.8268,2.8355,2.8277,2.8281,2.8284,2.8286,2.8512,2.8515,0,0,0,0,0,0,2.8091,2.8101,2.8215,2.8218,2.8131,2.8173,2.818,2.821,2.8236,2.8237,2.8205,2.82,2.8256,2.8262,2.827,2.8373,2.8282,2.8286,2.8289,2.8509,2.8513,2.8516,0,0,0,0,0,0,2.8088,2.8102,2.8212,2.8159,2.8172,2.8179,2.8213,2.8212,2.8231,2.8241,2.8241,2.8223,2.8254,2.8263,2.833,2.8374,2.8288,2.8293,2.8505,2.851,2.8515,2.8581,0,0,0,0,0,0,2.8083,2.8101,2.8136,2.816,2.8175,2.8274,2.8216,2.8216,2.824,2.8235,2.8258,2.8259,2.8252,2.8323,2.8335,2.8379,2.8297,2.8501,2.8508,2.8513,2.8575,2.8588,2.8598,0,0,0,0,0,2.8078,2.8151,2.8138,2.8152,2.8219,2.8277,2.8285,2.8277,2.8244,2.8278,2.8284,2.8258,2.8368,2.833,2.8343,2.839,2.8499,2.8506,2.8513,2.857,2.8585,2.8598,0,0,0,0,0,0,2.8129,2.8154,2.8139,2.8223,2.8248,2.8269,2.8312,2.8294,2.8327,2.8321,2.8308,2.8313,2.8384,2.8393,2.8351,2.8475,2.8427,2.8437,2.8466,2.8481,2.8493,2.8488,2.8301,0,0,0,0,0,2.8151,2.8198,2.8215,2.8287,2.8301,2.8304,2.8329,2.8321,2.8346,2.8356,2.8367,2.839,2.843,2.8456,2.8493,2.8576,2.858,2.8614,2.8626,2.8635,2.8644,2.8688,2.8703,2.8539,2.8539,2.8539,0,0,2.8194,2.8214,2.8244,2.8298,2.8317,2.8363,2.8313,2.8365,2.8399,2.8363,2.8427,2.8436,2.8461,2.8537,2.857,2.8547,2.869,2.8644,2.8652,2.8655,2.8697,2.8712,2.8726,2.8544,2.8543,2.8543,0,0,2.8298,2.8318,2.838,2.84,2.843,2.8432,2.8447,2.847,2.8476,2.8541,2.8514,2.8553,2.8622,2.8641,2.8659,2.877,2.8747,2.8782,2.8843,2.8886,2.8898,2.891,2.8949,2.8963,2.8791,2.8791,2.8791,0,2.8349,2.8421,2.8413,2.8468,2.8491,2.8463,2.8524,2.8543,2.8583,2.8599,2.8572,2.8658,2.8672,2.8751,2.8779,2.8795,2.881,2.8779,2.8898,2.8909,2.8919,2.8956,2.8971,2.8795,2.8794,2.8794,2.8794,0,2.848,2.853,2.8576,2.8618,2.8646,2.8703,2.8703,2.8732,2.8722,2.8726,2.8791,2.8808,2.8848,2.8866,2.8855,2.8943,2.8928,2.89,2.8852,2.8939,2.8974,2.8988,2.8801,2.8799,2.8798,2.8797,0,0,2.8618,2.8655,2.8672,2.8691,2.8721,2.8759,2.8813,2.8854,2.888,2.8907,2.8952,2.9011,2.8985,2.9006,2.8997,2.9035,2.9121,2.9002,2.9002,2.9023,2.9218,2.9239,2.9255,2.9106,2.9108,2.9111,2.9215,0,2.8723,2.8822,2.8817,2.8908,2.8954,2.8927,2.8974,2.8997,2.9002,2.9039,2.9043,2.9085,2.9049,2.9061,2.9097,2.9103,2.9159,2.9095,2.9145,2.9147,2.914,2.9273,2.9296,2.9394,2.9229,2.9231,2.9233,0,2.8859,2.8894,2.8991,2.9015,2.9034,2.9077,2.9114,2.915,2.9175,2.9175,2.9199,2.9184,2.9237,2.9188,2.926,2.9217,2.9237,2.9242,2.9246,2.925,2.9195,2.928,2.9425,2.944,2.9254,2.9252,2.9251,0,2.895,2.902,2.9088,2.9104,2.9134,2.9164,2.9178,2.92,2.9224,2.9255,2.9271,2.9307,2.9327,2.9354,2.9348,2.9313,2.9422,2.9372,2.9422,2.9423,2.9446,2.9445,2.9596,2.946,2.946,2.9459,2.9459,0,2.9067,2.9127,2.9129,2.917,2.9236,2.9228,2.9293,2.9302,2.9322,2.9362,2.9341,2.9379,2.9369,2.9406,2.9401,2.9462,2.947,2.9471,2.9469,2.9473,2.9473,2.9486,2.9479,2.9463,2.9463,2.9462,2.9461,0,2.9179,2.9183,2.9254,2.9277,2.9284,2.9331,2.9349,2.9387,2.939,2.9442,2.9454,2.9458,2.9501,2.9498,2.9545,2.9542,2.9616,2.9606,2.9609,2.9606,2.9656,2.9652,2.982,2.9842,2.9693,2.9694,2.9695,0,2.9254,2.93,2.9328,2.9356,2.9372,2.9415,2.9441,2.9434,2.9461,2.9493,2.9526,2.9567,2.96,2.9669,2.9675,2.9711,2.9701,2.9758,2.9706,2.9709,2.9701,2.9699,2.9703,2.9768,2.977,2.9771,2.9772,0,2.9387,2.9386,2.9425,2.9466,2.9497,2.9528,2.9555,2.9578,2.9574,2.9605,2.965,2.9676,2.9725,2.9765,2.98,2.981,2.979,2.9788,2.9802,2.9806,2.9806,2.9806,2.9636,2.9784,2.9783,2.9782,2.9782,2.9781,2.9482,2.9521,2.9548,2.9592,2.9612,2.9639,2.9676,2.9684,2.9722,2.9763,2.9757,2.9806,2.9828,2.9872,2.9887,2.9924,2.9903,2.9923,2.9928,2.9933,2.9938,2.98,2.993,2.993,2.9929,2.9929,2.9929,0,2.9613,2.9629,2.9669,2.971,2.9744,2.9725,2.9754,2.9783,2.9828,2.9851,2.9885,2.9935,2.9974,2.9984,3.0021,3.0049,3.004,3.0059,3.0056,3.0059,2.9955,2.9939,3.0065,3.0065,3.0065,3.0065,3.0065,3.0065,2.9685,2.9751,2.9753,2.9828,2.9843,2.9893,2.9912,2.9935,2.9954,3.0012,3.0046,3.0052,3.0069,3.0107,3.0142,3.0143,3.0158,3.018,3.0177,3.008,3.0066,3.0053,3.0039,3.0183,3.0183,3.0278,3.0279,3.028]}]]